User: anonymous   Login
Location: Newark
(45.5000°N, 11.4167°E)
Time: 03:47:17
(UTC+00:00)
Language:

Altair - Orbit

View from above orbital plane
View from above orbital plane
View from above satellite
View from above satellite

Ground track
Ground track

The orbit data is extracted from the following two-line orbital elements,

1    50U 60009B   20220.41531270 -.00000054  00000-0  30851-3 0  9999
2    50  47.2325 323.1041 0113653 117.8258 243.4102 12.20112503676906
Epoch (UTC): 07 August 2020 09:58:03
Eccentricity: 0.0113653
inclination: 47.2325°
perigee height: 1501 km
apogee height: 1682 km
right ascension of ascending node: 323.1041°
argument of perigee: 117.8258°
revolutions per day: 12.20112503
mean anomaly at epoch: 243.4102°
orbit number at epoch: 67690

The dashed part of the orbit path shows where the satellite is in the earth's shadow,  

DLR